This is the latest recevied weather packets stored in our database for station/object KC5DAQ-28. If no packets are shown the sender has not sent any weather packets the latest 1 day(s).
| Time | Temp. | Humidity | Pressure | Rain* | Wind** | Luminosity | Snow |
|---|---|---|---|---|---|---|---|
| 1777964342 | 21.67° C | 86% | 1003.6 hPa | 0 mm | 0.45 m/s, 165° | 0 W/m² | - |
| 1777964283 | 21.67° C | 85% | 1003.7 hPa | 0 mm | 0.89 m/s, 172° | 0 W/m² | - |
| 1777964223 | 21.67° C | 85% | 1003.6 hPa | 0 mm | 0.89 m/s, 149° | 0 W/m² | - |
| 1777964162 | 21.67° C | 85% | 1003.6 hPa | 0 mm | 1.34 m/s, 176° | 0 W/m² | - |
| 1777964104 | 21.67° C | 85% | 1003.7 hPa | 0 mm | 0.89 m/s, 171° | 0 W/m² | - |
| 1777964042 | 21.67° C | 85% | 1003.8 hPa | 0 mm | 0.89 m/s, 162° | 0 W/m² | - |
| 1777963983 | 21.67° C | 85% | 1003.8 hPa | 0 mm | 0.89 m/s, 155° | 0 W/m² | - |
| 1777963923 | 21.67° C | 85% | 1003.8 hPa | 0 mm | 0.89 m/s, 161° | 0 W/m² | - |
| 1777963862 | 21.67° C | 85% | 1003.8 hPa | 0 mm | 1.34 m/s, 155° | 0 W/m² | - |
| 1777963805 | 21.67° C | 85% | 1003.8 hPa | 0 mm | 1.79 m/s, 183° | 0 W/m² | - |
| 1777963743 | 21.67° C | 85% | 1003.8 hPa | 0 mm | 1.34 m/s, 171° | 0 W/m² | - |
| 1777963683 | 21.67° C | 85% | 1003.9 hPa | 0 mm | 1.34 m/s, 134° | 0 W/m² | - |
| 1777963623 | 21.67° C | 85% | 1003.9 hPa | 0 mm | 1.34 m/s, 169° | 0 W/m² | - |
| 1777963562 | 21.67° C | 85% | 1003.9 hPa | 0 mm | 0.89 m/s, 140° | 0 W/m² | - |
| 1777963504 | 21.67° C | 85% | 1003.9 hPa | 0 mm | 0.45 m/s, 157° | 0 W/m² | - |
| 1777963443 | 21.67° C | 85% | 1004 hPa | 0 mm | 0.45 m/s, 176° | 0 W/m² | - |
| 1777963383 | 21.67° C | 85% | 1003.9 hPa | 0 mm | 0.45 m/s, 169° | 0 W/m² | - |
| 1777963325 | 21.67° C | 85% | 1004 hPa | 0 mm | 0.89 m/s, 192° | 0 W/m² | - |
| 1777963263 | 21.67° C | 85% | 1004 hPa | 0 mm | 0.89 m/s, 155° | 0 W/m² | - |
| 1777963204 | 21.67° C | 85% | 1004 hPa | 0 mm | 1.34 m/s, 134° | 0 W/m² | - |
| 1777963144 | 21.67° C | 85% | 1003.9 hPa | 0 mm | 1.34 m/s, 168° | 0 W/m² | - |
| 1777963083 | 21.67° C | 85% | 1004 hPa | 0 mm | 1.79 m/s, 202° | 0 W/m² | - |
| 1777963023 | 21.67° C | 85% | 1004 hPa | 0 mm | 1.79 m/s, 135° | 0 W/m² | - |
| 1777962963 | 21.67° C | 85% | 1004.1 hPa | 0 mm | 1.34 m/s, 159° | 0 W/m² | - |
| 1777962905 | 21.67° C | 85% | 1004 hPa | 0 mm | 0.89 m/s, 179° | 0 W/m² | - |
* Rain latest hour (hover to see other rain measurements)
** Current wind speed in m/s (hover to see current wind gust speed)